Regional Weather Roundup
Issued by NWS

Home | Current Version | Previous Version | Text Only | Print | Product List | Glossary Off
Versions: 1 2 3 4 5 6 7 8 9 10 11 12 13 14 15 16 17 18 19 20 21 22 23 24 25 26 27 28 29 30 31 32 33 34 35 36 37 38 39 40 41 42 43 44 45 46 47 48 49 50

012
ASUS43 KFSD 081410
RWRSD

WEATHER ROUNDUP FOR SOUTH DAKOTA
NATIONAL WEATHER SERVICE SIOUX FALLS SD
800 AM CST MON FEB 08 2016

NOTE: "FAIR" INDICATES FEW OR NO CLOUDS BELOW 12,000 FEET WITH NO
SIGNIFICANT WEATHER AND/OR OBSTRUCTIONS TO VISIBILITY.


SDZ001>005-009-010-012>017-081500-
NORTHWEST AND NORTH CENTRAL SOUTH DAKOTA

CITY           SKY/WX    TMP DP  RH WIND       PRES   REMARKS
BUFFALO          N/A     22  13  68 W10       30.29R WCI  11
FAITH            N/A     21  13  71 NW17      30.31R WCI   7
MOBRIDGE       CLEAR     24  16  71 NW12G22   30.23R WCI  13
$$

SDZ012>016-024>037-041>051-057-063-072>074-081500-
SOUTHWEST AND SOUTH CENTRAL SOUTH DAKOTA

CITY           SKY/WX    TMP DP  RH WIND       PRES   REMARKS
RAPID CTY ARPT   N/A     29   9  43 NW25G37   30.31R WCI  14
PIERRE         CLEAR     26  17  68 NW25G36   30.26R WCI  11
CUSTER         CLOUDY    24  -4  29 N15G26    30.23R WCI  11
ELLSWORTH AFB  CLOUDY    29   9  43 NW24      30.32R WCI  15
PHILIP         CLEAR     25  16  68 NW15      30.34R WCI  13
PINE RIDGE     CLOUDY    14   8  77 CALM      30.35R
SPEARFISH      FAIR      27   9  46 W17       30.37R WCI  14
WINNER         FAIR      26  16  65 NW24G32   30.24R WCI  11
$$

SDZ004>011-016>023-039-040-081500-
NORTHEAST SOUTH DAKOTA

CITY           SKY/WX    TMP DP  RH WIND       PRES   REMARKS
ABERDEEN       PTCLDY    21  14  74 N23       30.17R WCI   5
WATERTOWN      LGT SNOW  18  10  71 N30G43    30.06R WCI  -1
BROOKINGS      LGT SNOW  18  10  73 N30G38    30.02R WCI  -2
SISSETON         N/A     15  11  83 N26G36    30.11R WCI  -4
$$

SDZ017-020-022-023-036>040-048>070-081500-
SOUTHEAST SOUTH DAKOTA

CITY           SKY/WX    TMP DP  RH WIND       PRES   REMARKS
SIOUX FALLS    LGT SNOW  20  14  77 N24G39    30.06R BLWGSNOWWCI   3
HURON          CLOUDY    23  17  78 N18       30.16R WCI   9
CHAMBERLAIN    CLEAR     25  17  72 NW17G26   30.22R WCI  11
MITCHELL       CLOUDY    26  18  71 N20G30    30.16R WCI  12
YANKTON        CLOUDY   N/A N/A N/A NW29G45   30.11R
$$

ABBREVIATIONS USED IN REMARKS
   TC - TEMPERATURE IN CELSIUS
  WCI - WIND CHILL INDEX
   HX - HEAT INDEX
  VSB - VISIBILITY





USA.gov is the U.S. government's official web portal to all federal, state and local government web resources and services.